Flag for Germany Weather past 2 weeks in Munich, Bavaria, Germany

Now
55 °F

Sunny.


Feels Like: 55 °F
Forecast: 49 / 61 °F
Wind: 3 mph from North

Location: Oberpfaffenhofen

Current Time: Sep 4, 2015 at 10:26:50 AM

Latest Report: Sep 4, 2015 at 9:50 AM


Visibility: 10 mi

Pressure: 30.07 "Hg (28.24 "Hg at 526m altitude)

Humidity: 94%

Dew point: 54 °F

Location of MunichLocation

Historic Weather in Munich — Graph

°F

Munich temperature yesterday

Maximum temperature yesterday: 63 °F (at 1:20 PM)
Minimum temperature yesterday: 55 °F (at 6:50 AM)
Average temperature yesterday: 58 °F

Past Weeks' High & Low Weather Summary

 TemperatureHumidityPressure
High86 °F (Aug 29, 4:20 PM)100% (Aug 20, 8:50 PM)30.30 "Hg (Aug 20, 8:50 PM)
Low37 °F (Sep 2, 3:20 PM)27% (Aug 27, 3:20 PM)29.74 "Hg (Aug 24, 2:50 PM)
Average68 °F64%30.05 "Hg
* Reported Aug 20 9:20 AM — Sep 4 9:20 AM, Munich, Weather by CustomWeather, © 2015

Note: Actual official high and low records may vary slightly from our data, if they occured in-between our weather recording intervals... More about our weather records

Advertising

Munich weather history for previous 24 hours

 ConditionsComfort  
Time TempWeatherWind HumidityBarometerVisibility
9:20 AM
Fri, Sep 4
54 °FSunny.7 mph100%30.04 "Hg10 mi
8:50 AM54 °FSunny.7 mph94%30.04 "Hg10 mi
8:20 AM54 °FSunny.5 mph94%30.04 "Hg10 mi
7:50 AM52 °FSunny.2 mph100%30.04 "Hg10 mi
7:20 AM52 °FClear.2 mph94%30.04 "Hg10 mi
6:50 AM50 °FClear.7 mph100%30.04 "Hg10 mi
6:50 PM
Thu, Sep 3
57 °FLight rain. More clouds than sun.1 mph94%29.98 "Hg4 mi
6:20 PM57 °FRain. More clouds than sun.2 mph94%29.98 "Hg4 mi
5:50 PM57 °FRain. More clouds than sun.3 mph94%29.98 "Hg3 mi
5:20 PM57 °FLight rain. More clouds than sun.6 mph94%29.98 "Hg4 mi
4:50 PM59 °FBroken clouds.7 mph88%29.95 "HgN/A
4:20 PM59 °FBroken clouds.10 mph88%29.95 "Hg5 mi
3:50 PM59 °FSprinkles. Broken clouds.6 mph88%29.98 "Hg4 mi
3:20 PM59 °FBroken clouds.5 mph94%29.98 "Hg4 mi
2:50 PM59 °FSprinkles. Broken clouds.7 mph88%29.98 "Hg5 mi
2:20 PM59 °FSprinkles. Broken clouds.8 mph88%29.98 "HgN/A
1:50 PM61 °FPartly sunny.9 mph83%29.98 "HgN/A
1:20 PM63 °FPartly sunny.9 mph77%29.98 "HgN/A
12:50 PM61 °FBroken clouds.7 mph88%29.98 "HgN/A
12:20 PM59 °FPartly sunny.9 mph94%29.98 "HgN/A
11:50 AM61 °FPartly sunny.3 mph88%29.98 "HgN/A
11:20 AM59 °FPartly sunny.2 mph94%29.98 "HgN/A
10:50 AM59 °FPartly sunny.1 mph94%29.98 "Hg6 mi
10:20 AM59 °FPartly sunny.2 mph88%29.98 "Hg5 mi
Weather by CustomWeather, © 2015

See weather overviewHow to use our weather pages